This is the latest recevied weather packets stored in our database for station/object IW5CI-13. If no packets are shown the sender has not sent any weather packets the latest 10 day(s).
| Time | Temp. | Humidity | Pressure | Rain* | Wind** | Luminosity | Snow |
|---|---|---|---|---|---|---|---|
| 1777905584 | 21.11° C | 21% | 1016.9 hPa | - | - | - | - |
| 1777904379 | 20.56° C | 20% | 1016.9 hPa | - | - | - | - |
| 1777903175 | 20.56° C | 19% | 1017.1 hPa | - | - | - | - |
| 1777901970 | 20° C | 18% | 1017.2 hPa | - | - | - | - |
| 1777900766 | 20.56° C | 14% | 1017.4 hPa | - | - | - | - |
| 1777897153 | 21.11° C | 18% | 1017.7 hPa | - | - | - | - |
| 1777893539 | 21.11° C | 19% | 1018.2 hPa | - | - | - | - |
| 1777892335 | 20° C | 19% | 1018.4 hPa | - | - | - | - |
| 1777891130 | 20.56° C | 19% | 1018.7 hPa | - | - | - | - |
| 1777889926 | 20.56° C | 18% | 1019.1 hPa | - | - | - | - |
| 1777888722 | 20.56° C | 19% | 1019.2 hPa | - | - | - | - |
| 1777887517 | 19.44° C | 20% | 1019.5 hPa | - | - | - | - |
| 1777886313 | 19.44° C | 21% | 1019.5 hPa | - | - | - | - |
| 1777885109 | 18.33° C | 23% | 1019.6 hPa | - | - | - | - |
| 1777883904 | 17.22° C | 25% | 1019.6 hPa | - | - | - | - |
| 1777881496 | 16.11° C | 28% | 1019.9 hPa | - | - | - | - |
| 1777880291 | 15.56° C | 29% | 1019.9 hPa | - | - | - | - |
| 1777879087 | 14.44° C | 30% | 1020.1 hPa | - | - | - | - |
| 1777877882 | 13.89° C | 31% | 1020.1 hPa | - | - | - | - |
| 1777876678 | 12.78° C | 32% | 1020.1 hPa | - | - | - | - |
| 1777875474 | 12.78° C | 33% | 1020.1 hPa | - | - | - | - |
| 1777874269 | 12.78° C | 32% | 1020.2 hPa | - | - | - | - |
| 1777873065 | 12.78° C | 32% | 1020.1 hPa | - | - | - | - |
| 1777871861 | 12.78° C | 32% | 1019.9 hPa | - | - | - | - |
| 1777869452 | 11.67° C | 34% | 1019.6 hPa | - | - | - | - |
* Rain since midnight (hover to see other rain measurements)
** Current wind speed in m/s (hover to see current wind gust speed)